#timestamp,LO_Frequency,Hit,StdDev 
1594674015.3,286046999.0,N
1594674035.2,286046999.3,N
1594674055.0,286047001.5,N
1594674055.9,286047001.5,N
1594674075.8,286047001.5,N
1594674095.6,286047003.6,N
1594674115.4,286047002.4,N
1594674135.3,286047003.6,N
1594674155.1,286047003.1,N
1594674175.9,286047002.6,N
1594674195.7,286047002.2,N
1594674215.5,286047002.8,N
1594674235.4,286046999.7,N
1594674255.2,286047000.4,N
1594674275.0,286047000.5,N
1594674275.9,286047000.5,N
1594674295.8,286046999.8,N
1594674315.6,286046998.4,N
1594674335.5,286047000.8,N
1594674355.3,286046999.9,N
1594674375.1,286046998.6,N
1594674395.9,286046999.3,N
1594674415.7,286046996.6,N
1594674435.6,286046997.0,N
1594674455.4,286046998.6,N
1594674475.2,286047002.7,N
1594674495.1,286046999.7,N
1594674496.0,286046999.7,N
1594674515.8,286047001.6,N
1594674535.6,286047001.5,N
1594674555.5,286047003.5,N
1594674575.3,286047006.0,Y
1594674595.2,286047006.0,P
1594674615.9,286047009.0,P
1594674635.7,286047007.0,N
1594674655.6,286047006.4,N
1594674675.4,286047006.2,N
1594674695.3,286047008.5,Y
1594674715.1,286047002.3,P
1594674716.0,286047002.3,N
1594674735.8,286047000.5,N
1594674755.7,286046997.0,N
1594674775.5,286047000.7,N
1594674795.3,286047000.5,N
1594674815.2,286047000.2,N
1594674835.0,286047000.3,N
1594674835.9,286047000.3,N
1594674855.8,286047001.9,N
1594674875.6,286047000.1,N
1594674895.4,286047002.2,N
1594674915.3,286047001.7,N
1594674935.1,286047003.7,N
1594674955.8,286047000.4,N
1594674975.7,286046998.6,N
1594674995.5,286047000.9,N
1594675015.4,286047001.0,N
1594675035.2,286046998.8,N
1594675055.0,286046999.1,N
1594675055.9,286046999.1,N
1594675075.8,286047000.5,N
1594675095.6,286047001.0,N
1594675115.5,286047002.8,N
1594675135.3,286047001.1,N
1594675155.1,286046998.1,N
1594675175.9,286047001.0,N
1594675195.7,286047001.2,N
1594675215.6,286046998.8,N
1594675235.4,286046998.5,N
1594675255.2,286046998.7,N
1594675275.1,286046997.5,N
1594675276.0,286046997.5,N
1594675295.8,286046998.3,N
1594675315.6,286047002.8,N
1594675335.5,286047000.9,N
1594675355.3,286046998.2,N
1594675375.2,286046998.5,N
1594675395.9,286047000.7,N
1594675415.7,286047002.4,N
1594675435.6,286047002.8,N
1594675455.4,286047001.0,N
1594675475.2,286046996.6,N
1594675495.1,286046997.5,N
1594675496.0,286046997.5,N
1594675515.8,286046997.6,N
1594675535.7,286046997.8,N
1594675555.5,286047000.5,N
1594675575.3,286047000.1,N
1594675595.2,286047000.3,N
1594675615.0,286046999.3,N
1594675615.9,286046999.3,N
1594675635.8,286046999.4,N
1594675655.6,286046999.2,N
1594675675.4,286046996.9,N
1594675695.3,286046998.5,N
1594675715.1,286046996.6,N
1594675735.9,286046995.2,N
1594675755.7,286046995.0,N
1594675775.5,286046995.3,N
1594675795.4,286046996.2,N
1594675815.2,286046994.5,N
1594675835.0,286046994.5,N
1594675835.9,286046994.5,N
1594675855.8,286046996.1,N
1594675875.6,286046997.5,N
1594675895.5,286046996.3,N
1594675915.3,286046995.8,N
1594675935.1,286046997.9,N
1594675955.9,286046997.6,N
1594675975.7,286046995.6,N
1594675995.5,286046995.2,N
1594676015.4,286046998.0,N
1594676035.2,286046998.7,N
1594676055.1,286046999.0,N
1594676056.0,286046999.0,N
1594676075.8,286046999.6,N
1594676095.6,286046997.5,N
1594676115.5,286046995.2,N
1594676135.3,286046996.9,N
1594676155.2,286046997.3,N
1594676175.9,286046997.3,N
1594676195.7,286046997.0,N
1594676215.6,286046995.0,Y
1594676235.4,286046999.5,P
1594676255.2,286046999.3,N
1594676275.1,286047000.5,N
1594676276.0,286047000.5,N
1594676295.8,286046998.7,N
1594676315.7,286047001.2,N
1594676335.5,286046998.7,N
1594676355.3,286047000.9,N
1594676375.2,286047000.7,N
1594676395.0,286046998.3,N
1594676395.9,286046998.3,N
1594676415.8,286046999.1,N
1594676435.6,286046999.3,N
1594676455.4,286046999.7,N
1594676475.3,286047000.0,N
1594676495.1,286047000.7,N
1594676515.8,286047001.1,N
1594676535.7,286046999.4,N
1594676555.5,286046998.7,N
1594676575.4,286046999.2,N
1594676595.2,286046996.6,Y
1594676615.0,286046997.1,P
1594676615.9,286046997.1,N
1594676635.8,286046999.2,N
1594676655.6,286046999.8,N
1594676675.5,286047000.2,N
1594676695.3,286046998.8,N
1594676715.1,286046999.4,N
1594676735.9,286046998.8,N
1594676755.7,286047001.1,N
1594676775.5,286047000.2,N
1594676795.4,286046998.8,N
1594676815.2,286046998.6,N
1594676835.1,286047000.8,N
1594676836.0,286047000.8,N
1594676855.8,286046999.7,N
1594676875.6,286047002.6,N
1594676895.5,286047000.3,N
1594676915.3,286046998.7,N
1594676935.2,286046999.1,N
1594676955.9,286046998.8,N
1594676975.7,286046999.0,N
1594676995.6,286046997.4,N
1594677015.4,286046997.8,N
1594677035.2,286046996.8,N
1594677055.1,286046997.1,N
1594677056.0,286046997.1,N
1594677075.8,286046998.2,N
1594677095.7,286047004.3,Y
1594677115.5,286047004.2,P
1594677135.3,286047001.9,N
1594677155.2,286047002.6,N
1594677175.0,286047000.6,N
1594677175.9,286047000.6,N
1594677195.8,286047001.0,N
1594677215.6,286046998.1,N
1594677235.4,286047001.0,N
1594677255.3,286047000.2,N
1594677275.1,286046998.1,N
1594677295.9,286047001.2,N
1594677315.7,286047001.2,N
1594677335.5,286046998.9,N
1594677355.8,286046997.0,N
1594677375.6,286046998.3,N
1594677395.4,286046999.2,N
1594677415.3,286046999.2,N
1594677435.1,286046998.4,N
1594677455.8,286047000.0,N
1594677475.7,286047002.7,N
1594677495.5,286046998.7,N
1594677515.4,286046998.5,N
1594677535.2,286046998.8,N
1594677555.0,286046999.2,N
1594677555.9,286046999.2,N
1594677575.8,286046999.1,N
1594677595.6,286046996.6,N
